Wellsville, NY

10:25 PM EDT on August 30, 2016 (GMT -0400)
Wellsville Municipal-Tarantine

Weather History for KELZ - March, 2013

Change the Weather History Date:

Friday, March 22, 2013

  Actual Average (KBFD) Record (KBFD)
Temperature  
Mean Temperature 23 °F 34 °F  
Max Temperature 27 °F 44 °F 77 °F (2012)
Min Temperature 19 °F 24 °F -4 °F (1988)
Degree Days  
Heating Degree Days 42 26  
Month to date heating degree days 647  
Since 1 July heating degree days 6217  
Cooling Degree Days 0 0  
Month to date cooling degree days 0  
Year to date cooling degree days 0  
Moisture  
Dew Point 16 °F    
Average Humidity 76    
Maximum Humidity 81    
Minimum Humidity 63    
Precipitation  
Precipitation 0.00 in 0.12 in 0.62 in (1968)
Month to date precipitation 2.31  
Year to date precipitation 7.95  
Sea Level Pressure  
Sea Level Pressure 29.82 in    
Wind  
Wind Speed 14 mph (West)    
Max Wind Speed 22 mph    
Max Gust Speed 29 mph    
Visibility 7 miles    
Events Snow    
T = Trace of Precipitation, MM = Missing Value Source: NWS Daily Summary

Daily Weather History Graph

Daily Weather History Graph

Search for Another Location

Airport or City:

Trip Planner

Search our weather history database for the weather conditions in past years. The results will help you decide how hot, cold, wet, or windy it might be!

Date:

Astronomy

Mar. 22, 2013 Rise Set
Actual Time 7:11 AM EDT 7:26 PM EDT
Civil Twilight 6:43 AM EDT 7:54 PM EDT
Nautical Twilight 6:10 AM EDT 8:27 PM EDT
Astronomical Twilight 5:37 AM EDT 9:01 PM EDT
Moon 2:47 PM EDT (3/22) 4:15 AM EDT (3/22)
Length of Visible Light 13h 11m
Length of Day
12h 15m
Waxing Gibbous, 77% of the Moon is Illuminated
Mar 22
Waxing Gibbous
Mar 27
Full
Apr 3
Last Quarter
Apr 10
New
Apr 18
First Quarter

Hourly Weather History & Observations

Time (EDT) Temp. Windchill Dew Point Humidity Pressure Visibility Wind Dir Wind Speed Gust Speed Precip Events Conditions
12:32 AM 19.4 °F 6.0 °F 14.0 °F 80% 29.69 in 7.0 mi WNW 13.8 mph - 0.00 in Snow Light Snow
12:56 AM 19.9 °F 10.1 °F 14.0 °F 78% 29.79 in 9.0 mi West 8.1 mph - 0.00 in Snow Light Snow
1:20 AM 19.4 °F 9.5 °F 14.0 °F 80% 29.69 in 3.0 mi West 8.1 mph - 0.00 in Snow Light Snow
1:56 AM 19.0 °F 6.8 °F 14.0 °F 81% 29.79 in 5.0 mi West 11.5 mph - 0.00 in Snow Light Snow
2:56 AM 19.0 °F 6.8 °F 14.0 °F 81% 29.78 in 5.0 mi West 11.5 mph - 0.00 in Snow Light Snow
3:56 AM 19.9 °F 6.2 °F 14.0 °F 78% 29.78 in 8.0 mi West 15.0 mph 21.9 mph 0.00 in Snow Light Snow
4:56 AM 19.9 °F 7.9 °F 15.1 °F 81% 29.77 in 7.0 mi West 11.5 mph - 0.00 in Snow Light Snow
5:56 AM 19.9 °F 6.2 °F 15.1 °F 81% 29.78 in 9.0 mi WNW 15.0 mph - 0.00 in Snow Light Snow
6:56 AM 21.0 °F 7.1 °F 15.1 °F 78% 29.79 in 9.0 mi West 16.1 mph 21.9 mph 0.00 in Snow Light Snow
7:23 AM 21.2 °F 8.3 °F 15.8 °F 80% 29.70 in 2.0 mi West 13.8 mph - 0.00 in Snow Light Snow
7:49 AM 21.2 °F 8.9 °F 15.8 °F 80% 29.71 in 5.0 mi West 12.7 mph - 0.00 in Snow Light Snow
7:56 AM 21.0 °F 9.9 °F 16.0 °F 81% 29.81 in 3.0 mi West 10.4 mph - 0.00 in Snow Light Snow
8:05 AM 21.2 °F 7.8 °F 15.8 °F 80% 29.71 in 2.0 mi West 15.0 mph 21.9 mph 0.00 in Snow Light Snow
8:40 AM 21.2 °F 8.9 °F 15.8 °F 80% 29.73 in 1.8 mi West 12.7 mph - 0.00 in Snow Light Snow
8:47 AM 21.2 °F 7.8 °F 15.8 °F 80% 29.73 in 2.0 mi West 15.0 mph 20.7 mph 0.00 in Snow Light Snow
8:56 AM 21.9 °F 9.8 °F 16.0 °F 78% 29.83 in 5.0 mi West 12.7 mph 20.7 mph 0.00 in Snow Light Snow
9:56 AM 23.0 °F 8.3 °F 16.0 °F 74% 29.83 in 3.0 mi WNW 19.6 mph 26.5 mph 0.00 in Snow Light Snow
10:45 AM 24.8 °F 11.1 °F 15.8 °F 69% 29.75 in 2.0 mi WNW 18.4 mph 27.6 mph 0.00 in Snow Light Snow
10:56 AM 24.1 °F 9.4 °F 16.0 °F 71% 29.84 in 2.5 mi WNW 20.7 mph 28.8 mph 0.00 in Snow Light Snow
11:04 AM 24.8 °F 11.5 °F 15.8 °F 69% 29.75 in 5.0 mi WNW 17.3 mph 27.6 mph 0.00 in Snow Light Snow
11:56 AM 26.1 °F 13.6 °F 16.0 °F 66% 29.85 in 10.0 mi West 16.1 mph 25.3 mph 0.00 in   Overcast
12:38 PM 26.6 °F 12.4 °F 15.8 °F 64% 29.75 in 10.0 mi West 21.9 mph 26.5 mph 0.00 in   Overcast
12:56 PM 26.1 °F 12.3 °F 15.1 °F 63% 29.85 in 10.0 mi WNW 19.6 mph 28.8 mph 0.00 in   Overcast
1:21 PM 26.6 °F 14.7 °F 15.8 °F 64% 29.76 in 10.0 mi West 15.0 mph 21.9 mph 0.00 in   Overcast
1:56 PM 26.1 °F 12.0 °F 17.1 °F 69% 29.86 in 10.0 mi WNW 20.7 mph 25.3 mph 0.00 in   Overcast
2:56 PM 27.0 °F 15.6 °F 17.1 °F 66% 29.86 in 10.0 mi WNW 13.8 mph - N/A   Overcast
3:56 PM 26.1 °F 13.6 °F 17.1 °F 69% 29.87 in 9.0 mi West 16.1 mph 24.2 mph 0.00 in Snow Light Snow
4:56 PM 25.0 °F 10.9 °F 18.0 °F 75% 29.89 in 10.0 mi WNW 19.6 mph 24.2 mph 0.00 in   Overcast
5:56 PM 24.1 °F 12.0 °F 18.0 °F 77% 29.91 in 5.0 mi West 13.8 mph 19.6 mph 0.00 in Snow Light Snow
6:56 PM 24.1 °F 12.5 °F 17.1 °F 75% 29.93 in 10.0 mi West 12.7 mph 21.9 mph 0.00 in   Overcast
7:56 PM 24.1 °F 11.5 °F 16.0 °F 71% 29.95 in 10.0 mi West 15.0 mph 25.3 mph 0.00 in   Overcast
8:56 PM 23.0 °F 10.6 °F 17.1 °F 78% 29.96 in 10.0 mi West 13.8 mph 19.6 mph 0.00 in   Overcast
9:07 PM 23.0 °F 11.7 °F 17.6 °F 80% 29.87 in 10.0 mi West 11.5 mph 23.0 mph N/A   Overcast
9:25 PM 23.0 °F 10.1 °F 17.6 °F 80% 29.87 in 10.0 mi West 15.0 mph 19.6 mph N/A   Overcast
9:56 PM 23.0 °F 13.1 °F 17.1 °F 78% 29.97 in 10.0 mi West 9.2 mph - N/A   Overcast
10:11 PM 23.0 °F 10.1 °F 17.6 °F 80% 29.88 in 10.0 mi WNW 15.0 mph - N/A   Overcast
10:56 PM 23.0 °F 10.6 °F 18.0 °F 81% 29.97 in 10.0 mi West 13.8 mph 19.6 mph N/A   Overcast